Location: Gu�tanj
(46.5431°N, 14.9692°E)
Time: 06:39:33
(UTC+00:00)

Cosmos 2333 Rocket - Pass Details

Date: 03 March 2021
Orbit: 837 x 864 km, 70.8° (Epoch: 18 April)

Event Time Altitude Azimuth Distance (km) Brightness Sun altitude
Rises 18:47:00 0° 196° (SSW) 3,385 5.4 -21.0°
Reaches altitude 10° 18:49:27 10° 193° (SSW) 2,458 4.6 -21.4°
Maximum altitude 18:55:02 67° 112° (ESE) 920 2.1 -22.3°
Drops below altitude 10° 19:00:42 10° 32° (NNE) 2,493 4.5 -23.2°
Sets 19:03:11 0° 29° (NNE) 3,437 5.2 -23.7°
